TimeEST,TemperatureF,Dew PointF,Humidity,Sea Level PressureIn,VisibilityMPH,Wind Direction,Wind SpeedMPH,Gust SpeedMPH,PrecipitationIn,Events,Conditions,WindDirDegrees,DateUTC
12:15 AM,34.0,27.3,77,30.10,10.0,SSW,11.5,-,N/A,,Overcast,210,2013-01-06 05:15:00
12:35 AM,34.2,27.3,76,30.09,10.0,SSW,12.7,-,N/A,,Overcast,210,2013-01-06 05:35:00
12:55 AM,34.5,27.5,76,30.08,10.0,SW,12.7,-,N/A,,Overcast,220,2013-01-06 05:55:00
1:15 AM,34.7,28.0,77,30.07,10.0,SW,10.4,17.3,N/A,,Overcast,220,2013-01-06 06:15:00
1:35 AM,34.7,28.2,77,30.06,10.0,SSW,10.4,-,N/A,,Overcast,210,2013-01-06 06:35:00
1:55 AM,34.9,28.4,77,30.06,10.0,SSW,11.5,-,N/A,,Overcast,210,2013-01-06 06:55:00
2:15 AM,34.9,28.4,77,30.05,10.0,SSW,11.5,-,N/A,,Overcast,210,2013-01-06 07:15:00
2:35 AM,34.9,28.4,77,30.05,10.0,SW,10.4,-,N/A,,Overcast,220,2013-01-06 07:35:00
2:55 AM,34.9,28.4,77,30.04,10.0,SSW,10.4,-,N/A,,Overcast,200,2013-01-06 07:55:00
3:15 AM,34.9,28.4,77,30.05,10.0,SW,12.7,-,N/A,,Overcast,220,2013-01-06 08:15:00
3:35 AM,35.1,28.4,77,30.04,10.0,SSW,12.7,-,N/A,,Overcast,210,2013-01-06 08:35:00
3:55 AM,35.1,28.4,77,30.03,10.0,SW,11.5,-,N/A,,Overcast,220,2013-01-06 08:55:00
4:15 AM,34.9,28.6,78,30.03,10.0,SW,11.5,-,N/A,,Overcast,220,2013-01-06 09:15:00
4:35 AM,35.1,28.8,78,30.02,10.0,SSW,12.7,-,N/A,,Overcast,210,2013-01-06 09:35:00
4:55 AM,35.1,28.9,78,30.01,10.0,SW,13.8,-,N/A,,Overcast,220,2013-01-06 09:55:00
5:15 AM,35.1,28.9,78,30.00,10.0,SSW,11.5,-,N/A,,Overcast,210,2013-01-06 10:15:00
5:35 AM,35.1,28.9,78,30.00,10.0,SW,12.7,-,N/A,,Overcast,220,2013-01-06 10:35:00
5:55 AM,35.1,29.1,79,30.00,10.0,SW,12.7,-,N/A,,Overcast,230,2013-01-06 10:55:00
6:15 AM,35.1,29.1,79,29.99,10.0,SW,10.4,-,N/A,,Overcast,230,2013-01-06 11:15:00
6:55 AM,35.1,29.1,79,29.99,10.0,SW,11.5,17.3,N/A,,Overcast,220,2013-01-06 11:55:00
7:15 AM,34.9,29.1,79,30.00,10.0,SW,12.7,-,N/A,,Overcast,230,2013-01-06 12:15:00
7:35 AM,34.9,29.3,80,30.00,10.0,SW,11.5,-,N/A,,Overcast,230,2013-01-06 12:35:00
7:55 AM,34.9,29.3,80,30.01,10.0,SW,12.7,18.4,N/A,,Overcast,230,2013-01-06 12:55:00
8:15 AM,34.9,29.3,80,30.01,10.0,SW,11.5,-,N/A,,Overcast,230,2013-01-06 13:15:00
8:35 AM,34.9,29.3,80,30.01,10.0,SW,11.5,-,N/A,,Overcast,230,2013-01-06 13:35:00
8:55 AM,34.9,29.3,80,30.01,10.0,SW,10.4,-,N/A,,Overcast,230,2013-01-06 13:55:00
9:15 AM,34.9,29.7,81,30.02,10.0,WSW,11.5,-,N/A,,Overcast,240,2013-01-06 14:15:00
9:35 AM,34.9,29.7,81,30.02,7.0,WSW,11.5,-,N/A,,Overcast,240,2013-01-06 14:35:00
9:55 AM,35.1,29.3,80,30.03,10.0,WSW,15.0,23.0,N/A,,Overcast,240,2013-01-06 14:55:00
10:15 AM,32.4,27.1,81,30.05,7.0,WNW,12.7,19.6,N/A,,Overcast,290,2013-01-06 15:15:00
10:35 AM,30.6,25.7,82,30.05,2.5,WNW,12.7,20.7,N/A,,Overcast,290,2013-01-06 15:35:00
10:55 AM,29.8,25.2,83,30.07,4.0,WNW,9.2,17.3,N/A,,Overcast,290,2013-01-06 15:55:00
11:15 AM,29.3,23.4,78,30.07,10.0,West,15.0,23.0,N/A,,Overcast,270,2013-01-06 16:15:00
11:35 AM,29.3,22.1,75,30.07,10.0,West,17.3,23.0,N/A,,Overcast,270,2013-01-06 16:35:00
11:55 AM,29.3,21.9,74,30.07,10.0,West,11.5,17.3,N/A,,Overcast,270,2013-01-06 16:55:00
12:15 PM,29.1,21.7,74,30.07,10.0,WNW,13.8,18.4,N/A,,Overcast,300,2013-01-06 17:15:00
12:35 PM,27.9,21.2,76,30.07,10.0,WNW,11.5,21.9,N/A,,Overcast,290,2013-01-06 17:35:00
12:55 PM,27.9,21.2,76,30.08,10.0,West,16.1,23.0,N/A,,Overcast,280,2013-01-06 17:55:00
1:15 PM,27.9,21.2,76,30.08,7.0,WNW,11.5,19.6,N/A,,Overcast,290,2013-01-06 18:15:00
1:35 PM,27.5,21.0,77,30.08,7.0,West,13.8,19.6,N/A,,Overcast,280,2013-01-06 18:35:00
1:55 PM,27.3,20.8,77,30.09,7.0,WNW,10.4,20.7,N/A,,Overcast,290,2013-01-06 18:55:00
2:15 PM,27.1,20.7,77,30.10,7.0,West,12.7,-,N/A,,Overcast,280,2013-01-06 19:15:00
2:35 PM,26.4,19.4,75,30.11,7.0,West,13.8,24.2,N/A,,Overcast,280,2013-01-06 19:35:00
2:55 PM,26.2,19.4,75,30.13,7.0,WNW,12.7,18.4,N/A,,Overcast,290,2013-01-06 19:55:00
3:15 PM,25.7,18.9,75,30.15,7.0,WNW,11.5,20.7,N/A,,Overcast,290,2013-01-06 20:15:00
3:35 PM,25.7,19.0,76,30.17,7.0,WNW,11.5,17.3,N/A,,Overcast,290,2013-01-06 20:35:00
3:55 PM,25.5,19.2,77,30.18,7.0,WNW,8.1,16.1,N/A,,Overcast,290,2013-01-06 20:55:00
4:15 PM,25.5,19.2,77,30.19,7.0,West,9.2,18.4,N/A,,Overcast,280,2013-01-06 21:15:00
4:35 PM,25.5,19.4,78,30.21,7.0,West,13.8,-,N/A,,Overcast,270,2013-01-06 21:35:00
4:55 PM,25.3,19.0,77,30.22,7.0,West,10.4,-,N/A,,Overcast,280,2013-01-06 21:55:00
5:15 PM,25.3,19.0,77,30.23,7.0,West,6.9,-,N/A,,Overcast,280,2013-01-06 22:15:00
5:55 PM,25.7,19.9,79,30.24,7.0,West,8.1,-,N/A,,Overcast,280,2013-01-06 22:55:00
6:15 PM,25.9,20.1,79,30.26,10.0,West,8.1,-,N/A,,Overcast,270,2013-01-06 23:15:00
6:35 PM,26.2,20.3,78,30.27,10.0,West,10.4,-,N/A,,Overcast,260,2013-01-06 23:35:00
6:55 PM,26.2,20.3,78,30.28,10.0,West,8.1,-,N/A,,Overcast,260,2013-01-06 23:55:00
7:15 PM,26.6,20.7,78,30.29,10.0,West,8.1,-,N/A,,Overcast,270,2013-01-07 00:15:00
7:35 PM,26.6,20.8,79,30.30,10.0,West,6.9,-,N/A,,Overcast,280,2013-01-07 00:35:00
7:55 PM,27.3,21.2,78,30.30,10.0,WNW,8.1,-,N/A,,Overcast,290,2013-01-07 00:55:00
8:15 PM,27.5,21.2,77,30.30,10.0,West,9.2,-,N/A,,Overcast,280,2013-01-07 01:15:00
8:35 PM,27.5,21.2,77,30.31,10.0,West,9.2,-,N/A,,Overcast,280,2013-01-07 01:35:00
8:55 PM,27.5,21.2,77,30.32,10.0,WNW,8.1,-,N/A,,Overcast,290,2013-01-07 01:55:00
9:15 PM,28.0,21.2,76,30.32,10.0,WNW,6.9,-,N/A,,Overcast,290,2013-01-07 02:15:00
9:35 PM,28.4,21.2,74,30.33,10.0,WNW,6.9,-,N/A,,Overcast,290,2013-01-07 02:35:00
9:55 PM,28.4,21.2,74,30.33,10.0,West,8.1,-,N/A,,Overcast,280,2013-01-07 02:55:00
10:15 PM,28.4,21.2,74,30.34,10.0,WNW,5.8,-,N/A,,Overcast,300,2013-01-07 03:15:00
10:35 PM,28.4,21.2,74,30.34,10.0,WNW,4.6,-,N/A,,Overcast,290,2013-01-07 03:35:00
10:55 PM,28.2,21.6,76,30.36,10.0,West,4.6,-,N/A,,Overcast,280,2013-01-07 03:55:00
11:15 PM,28.0,21.7,77,30.36,10.0,West,5.8,-,N/A,,Overcast,270,2013-01-07 04:15:00
11:35 PM,27.9,21.7,78,30.36,10.0,West,5.8,-,N/A,,Overcast,270,2013-01-07 04:35:00
11:55 PM,27.5,21.4,78,30.35,10.0,West,4.6,-,N/A,,Overcast,260,2013-01-07 04:55:00